"2009-07-03 00:00:00",1028462,4.112,248.1,1.32,0.16,17.28,108.0294,19.83,20.8,51.67,0,110.8,13.26,20.66,210.1
"2009-07-03 00:00:30",1028463,4.164,243.9,3.452,0.153,17.37,108.0212,19.81,20.81,52.5,0,110.8,13.26,20.64,205.9
"2009-07-03 00:01:00",1028464,4.306,238.3,2.125,0.193,17.36,108.0054,19.77,20.8,52.87,0,110.8,13.26,20.59,200.3
"2009-07-03 00:01:30",1028465,4.227,233.7,2.482,0.22,17.62,108.0034,19.77,20.79,52.14,0,110.8,13.26,20.59,195.7
"2009-07-03 00:02:00",1028466,3.508,230,1.01,0.155,17.67,108.0016,19.76,20.77,51.91,0,110.8,13.26,20.58,192.0
"2009-07-03 00:02:30",1028467,3.272,232.8,2.259,0.085,17.79,107.9839,19.72,20.76,51.91,0,110.8,13.26,20.54,194.8
"2009-07-03 00:03:00",1028468,3.671,237.1,4.317,0.262,18,107.9669,19.67,20.72,50.98,0,110.8,13.26,20.50,199.1
"2009-07-03 00:03:30",1028469,3.522,240.8,3.5,0.422,17.81,107.9645,19.67,20.71,50.94,0,110.8,13.26,20.49,202.8
"2009-07-03 00:04:00",1028470,3.238,240.9,2.35,0.261,17.42,107.9563,19.65,20.69,51.34,0,110.8,13.26,20.47,202.9
"2009-07-03 00:04:30",1028471,3.011,235.6,4.737,0.233,17.44,107.932,19.59,20.67,52.71,0,110.8,13.26,20.41,197.6
"2009-07-03 00:05:00",1028472,2.952,236.4,6.759,0.423,17.2,107.9271,19.57,20.66,52.65,0,110.8,13.26,20.39,198.4
"2009-07-03 00:05:30",1028473,2.561,242,5.116,0.206,17.18,107.9256,19.57,20.62,53.22,0,110.8,13.25,20.39,204.0
"2009-07-03 00:06:00",1028474,2.934,237,7.075,0.15,17.26,107.9144,19.54,20.59,53.22,0,110.8,13.25,20.36,199.0
"2009-07-03 00:06:30",1028475,2.87,237.7,4.792,0.323,17.1,107.8951,19.49,20.59,53.41,0,110.8,13.25,20.31,199.7
"2009-07-03 00:07:00",1028476,2.539,237,4.56,0.17,16.92,107.8787,19.45,20.55,53.88,0,110.8,13.25,20.27,199.0
"2009-07-03 00:07:30",1028477,1.909,245.9,5.012,0.232,16.65,107.8754,19.44,20.54,54.48,0,110.8,13.25,20.26,207.9
"2009-07-03 00:08:00",1028478,1.985,250,8.88,0.2,16.65,107.8745,19.44,20.52,54.89,0,110.8,13.25,20.26,212.0
"2009-07-03 00:08:30",1028479,2.219,238.1,3.277,0.164,16.74,107.8712,19.43,20.51,54.51,0,110.8,13.25,20.25,200.1
"2009-07-03 00:09:00",1028480,2.411,236.6,2.783,0.207,16.86,107.8672,19.42,20.51,53.91,0,110.8,13.25,20.24,198.6
"2009-07-03 00:09:30",1028481,2.793,235.8,2.926,0.17,17.12,107.8663,19.42,20.48,52.63,0,110.8,13.25,20.24,197.8
"2009-07-03 00:10:00",1028482,2.52,233.6,2.6,0.132,17.04,107.8663,19.42,20.48,52.21,0,110.8,13.25,20.24,195.6
"2009-07-03 00:10:30",1028483,2.583,235.7,3.308,0.144,16.99,107.8663,19.42,20.49,52.02,0,110.8,13.25,20.24,197.7
"2009-07-03 00:11:00",1028484,2.262,232.9,3.516,0.191,16.77,107.8666,19.42,20.47,52.03,0,110.8,13.25,20.24,194.9
"2009-07-03 00:11:30",1028485,2.051,230.6,3.931,0.21,16.57,107.8764,19.44,20.47,52.64,0,110.8,13.25,20.26,192.6
"2009-07-03 00:12:00",1028486,1.961,226.1,4.811,0.148,16.64,107.8908,19.48,20.48,53.07,0,110.8,13.25,20.30,188.1
"2009-07-03 00:12:30",1028487,1.656,227.4,5.61,0.226,16.6,107.9001,19.5,20.49,53.19,0,110.8,13.25,20.32,189.4
"2009-07-03 00:13:00",1028488,1.643,220.8,4.981,0.115,16.6,107.8964,19.49,20.5,53.29,0,110.8,13.25,20.31,182.8
"2009-07-03 00:13:30",1028489,1.53,226.6,4.713,0.078,16.37,107.8951,19.49,20.52,53.34,0,110.8,13.25,20.31,188.6
"2009-07-03 00:14:00",1028490,1.54,234.2,4.046,0.172,16.42,107.912,19.53,20.52,54.04,0,110.8,13.25,20.35,196.2
"2009-07-03 00:14:30",1028491,2.065,234.1,3.126,0.131,16.84,107.9114,19.53,20.55,53.97,0,110.8,13.25,20.35,196.1
"2009-07-03 00:15:00",1028492,2.022,238.7,6.24,0.308,17.23,107.8995,19.5,20.55,52.59,0,110.8,13.25,20.32,200.7
"2009-07-03 00:15:30",1028493,2.336,244.1,6.988,0.141,17.21,107.9075,19.52,20.59,52.4,0,110.8,13.25,20.34,206.1
"2009-07-03 00:16:00",1028494,2.07,268.5,15.61,0.219,17.21,107.9272,19.57,20.58,52.67,0,110.8,13.25,20.39,230.5
"2009-07-03 00:16:30",1028495,1.763,287.3,5.317,0.372,17.32,107.9312,19.58,20.6,52.98,0,110.8,13.25,20.40,249.3
"2009-07-03 00:17:00",1028496,2.111,294.9,6.943,0.154,17.6,107.9312,19.58,20.61,51.82,0,110.8,13.24,20.40,256.9
"2009-07-03 00:17:30",1028497,3.02,304.6,5.136,0.426,17.66,107.9312,19.58,20.63,51.49,0,110.8,13.24,20.40,266.6
"2009-07-03 00:18:00",1028498,3.503,312.4,3.077,0.181,17.87,107.9359,19.6,20.64,50.92,0,110.8,13.24,20.42,274.4
"2009-07-03 00:18:30",1028499,3.45,321.5,2.904,0.257,17.89,107.948,19.63,20.65,50.83,0,110.8,13.24,20.45,283.5
"2009-07-03 00:19:00",1028500,3.063,324.1,3.605,0.224,17.95,107.952,19.64,20.66,50.9,0,110.8,13.24,20.46,286.1
"2009-07-03 00:19:30",1028501,3.577,321.1,2.284,0.271,17.88,107.9579,19.65,20.65,51.02,0,110.9,13.24,20.47,283.1
"2009-07-03 00:20:00",1028502,4.092,322.7,3.124,0.074,18.07,107.9593,19.66,20.66,51.12,0,110.9,13.24,20.48,284.7
"2009-07-03 00:20:30",1028503,4.019,328.4,1.093,0.1,18.08,107.959,19.65,20.67,50.85,0,110.9,13.24,20.48,290.4
"2009-07-03 00:21:00",1028504,4.166,328.9,1.069,0.087,18.14,107.9621,19.66,20.69,50.62,0,110.9,13.24,20.48,290.9
"2009-07-03 00:21:30",1028505,3.742,317.6,2.752,0.258,17.96,107.9643,19.67,20.67,50.61,0,110.9,13.23,20.49,279.6
"2009-07-03 00:22:00",1028506,3.267,323.1,4.178,0.259,17.94,107.964,19.67,20.67,50.99,0,110.9,13.23,20.49,285.1
"2009-07-03 00:22:30",1028507,3.061,331.1,3.766,0.29,17.92,107.9638,19.67,20.69,51.06,0,110.9,13.23,20.49,293.1
"2009-07-03 00:23:00",1028508,3.926,327.4,1.851,0.097,18.2,107.9596,19.66,20.67,50.85,0,110.9,13.23,20.48,289.4
"2009-07-03 00:23:30",1028509,4.206,331.5,3.078,0.217,18.32,107.9567,19.65,20.69,50.03,0,110.9,13.23,20.47,293.5
"2009-07-03 00:24:00",1028510,3.98,327.6,1.763,0.145,18.38,107.9444,19.62,20.66,49.68,0,110.9,13.23,20.44,289.6
"2009-07-03 00:24:30",1028511,3.528,323.9,2.754,0.338,17.86,107.9351,19.59,20.68,50.2,0,110.9,13.23,20.41,285.9
"2009-07-03 00:25:00",1028512,3.122,315.2,6.893,0.212,17.75,107.9312,19.58,20.66,51.33,0,110.9,13.23,20.40,277.2
"2009-07-03 00:25:30",1028513,3.161,312.4,4.74,0.303,17.79,107.9312,19.58,20.65,51.77,0,110.9,13.23,20.40,274.4
"2009-07-03 00:26:00",1028514,2.913,301.5,8.38,0.402,17.81,107.9312,19.58,20.64,52.04,0,110.9,13.23,20.40,263.5
"2009-07-03 00:26:30",1028515,2.609,308.4,10.12,0.258,17.81,107.8999,19.5,20.62,52.21,0,110.9,13.23,20.32,270.4
"2009-07-03 00:27:00",1028516,2.638,325.6,8.51,0.317,17.78,107.8974,19.5,20.57,52.53,0,110.9,13.23,20.32,287.6
"2009-07-03 00:27:30",1028517,3.373,317.5,3.781,0.318,17.96,107.896,19.49,20.55,52.79,0,110.9,13.23,20.31,279.5
"2009-07-03 00:28:00",1028518,2.989,337.2,5.873,0.245,17.98,107.8794,19.45,20.54,52.37,0,110.9,13.23,20.27,299.2
"2009-07-03 00:28:30",1028519,3.363,334.2,6.379,0.313,17.95,107.8696,19.43,20.53,52.43,0,110.9,13.23,20.24,296.2
"2009-07-03 00:29:00",1028520,3.899,333.8,1.296,0.088,18.2,107.8636,19.41,20.51,52.2,0,110.9,13.23,20.23,295.8
"2009-07-03 00:29:30",1028521,4.154,335.2,1.62,0.132,18.26,107.8636,19.41,20.49,51.51,0,110.9,13.23,20.23,297.2
"2009-07-03 00:30:00",1028522,4.315,337.7,2.171,0.084,18.33,107.8636,19.41,20.49,51,0,110.9,13.23,20.23,299.7
"2009-07-03 00:30:30",1028523,4.381,333.9,1.39,0.127,18.3,107.8636,19.41,20.48,50.93,0,110.9,13.23,20.23,295.9
"2009-07-03 00:31:00",1028524,4.423,335.5,3.341,0.309,18.01,107.8614,19.4,20.46,51.72,0,110.9,13.24,20.22,297.5
"2009-07-03 00:31:30",1028525,4.123,337.8,3.569,0.154,18,107.853,19.38,20.47,53.12,0,110.9,13.24,20.20,299.8
"2009-07-03 00:32:00",1028526,4.35,335.9,2.413,0.231,18.1,107.8448,19.36,20.44,53.54,0,110.9,13.24,20.18,297.9
"2009-07-03 00:32:30",1028527,4.545,332.3,2.681,0.249,18.05,107.8321,19.33,20.43,52.83,0,110.9,13.24,20.15,294.3
"2009-07-03 00:33:00",1028528,4.863,334.5,1.154,0.372,18.07,107.8299,19.32,20.43,53.42,0,110.9,13.24,20.14,296.5
"2009-07-03 00:33:30",1028529,4.91,335.4,1.893,0.082,18.31,107.8299,19.32,20.41,53.15,0,110.9,13.24,20.14,297.4
"2009-07-03 00:34:00",1028530,4.833,334.8,0.961,0.076,18.33,107.8299,19.32,20.41,53.08,0,110.9,13.24,20.14,296.8
"2009-07-03 00:34:30",1028531,4.778,335.1,2.103,0.109,18.3,107.8299,19.32,20.4,53.11,0,110.9,13.24,20.14,297.1
"2009-07-03 00:35:00",1028532,4.916,335.5,1.381,0.149,18.3,107.8293,19.32,20.39,53.36,0,110.9,13.24,20.14,297.5
"2009-07-03 00:35:30",1028533,5.051,336.3,0.825,0.101,18.22,107.8285,19.32,20.38,54.08,0,110.9,13.24,20.14,298.3
"2009-07-03 00:36:00",1028534,5.037,335.6,1.048,0.036,18.32,107.8189,19.3,20.38,54.16,0,110.9,13.24,20.11,297.6
"2009-07-03 00:36:30",1028535,4.982,335.7,0.528,0.059,18.4,107.8127,19.28,20.37,53.56,0,110.9,13.24,20.10,297.7
"2009-07-03 00:37:00",1028536,4.918,334.4,0.671,0.074,18.33,107.8051,19.26,20.36,53.06,0,110.9,13.24,20.08,296.4
"2009-07-03 00:37:30",1028537,4.841,333.6,0.935,0.082,18.3,107.8001,19.25,20.36,52.78,0,110.9,13.24,20.07,295.6
"2009-07-03 00:38:00",1028538,4.816,333.6,0.806,0.044,18.34,107.7964,19.24,20.36,52.56,0,110.9,13.24,20.06,295.6
"2009-07-03 00:38:30",1028539,4.754,334.2,0.953,0.074,18.44,107.7961,19.24,20.34,52.33,0,110.8,13.24,20.06,296.2
"2009-07-03 00:39:00",1028540,4.715,333,1.131,0.054,18.57,107.7961,19.24,20.34,52.18,0,110.8,13.24,20.06,295.0
"2009-07-03 00:39:30",1028541,4.866,331.6,1.011,0.053,18.37,107.7961,19.24,20.33,52.2,0,110.8,13.23,20.06,293.6
"2009-07-03 00:40:00",1028542,4.805,331.9,0.589,0.06,18.5,107.7961,19.24,20.33,52.13,0,110.8,13.23,20.06,293.9
"2009-07-03 00:40:30",1028543,4.632,331.7,1.07,0.089,18.63,107.7961,19.24,20.34,52.11,0,110.8,13.23,20.06,293.7
"2009-07-03 00:41:00",1028544,4.583,331.4,0.986,0.13,18.6,107.7961,19.24,20.32,51.87,0,110.8,13.23,20.06,293.4
"2009-07-03 00:41:30",1028545,4.443,331.2,0.968,0.104,18.53,107.7961,19.24,20.34,51.91,0,110.8,13.23,20.06,293.2
"2009-07-03 00:42:00",1028546,4.312,331.3,1.197,0.111,18.47,107.7961,19.24,20.32,51.9,0,110.8,13.23,20.06,293.3
"2009-07-03 00:42:30",1028547,4.39,330.4,0.677,0.075,18.51,107.7961,19.24,20.32,51.91,0,110.9,13.23,20.06,292.4
"2009-07-03 00:43:00",1028548,4.152,331.8,1.298,0.108,18.68,107.7961,19.24,20.32,51.76,0,110.8,13.23,20.06,293.8
"2009-07-03 00:43:30",1028549,4.151,333.1,1.012,0.057,18.65,107.7961,19.24,20.32,51.71,0,110.8,13.23,20.06,295.1
"2009-07-03 00:44:00",1028550,4.197,332,0.855,0.074,18.62,107.7961,19.24,20.31,51.98,0,110.8,13.23,20.06,294.0
"2009-07-03 00:44:30",1028551,4.285,331.9,0.703,0.073,18.55,107.7965,19.24,20.32,51.97,0,110.8,13.24,20.06,293.9
"2009-07-03 00:45:00",1028552,4.225,331.7,0.872,0.047,18.64,107.7971,19.24,20.32,52.18,0,110.8,13.24,20.06,293.7
"2009-07-03 00:45:30",1028553,4.197,331.9,0.694,0.019,18.64,107.7971,19.24,20.33,52.21,0,110.8,13.24,20.06,293.9
"2009-07-03 00:46:00",1028554,4.08,330.9,0.772,0.062,18.78,107.7986,19.24,20.32,52.23,0,110.8,13.24,20.06,292.9
"2009-07-03 00:46:30",1028555,4.278,330.6,0.811,0.084,18.68,107.8016,19.25,20.33,52.28,0,110.8,13.24,20.07,292.6
"2009-07-03 00:47:00",1028556,4.193,330.9,1.012,0.087,18.8,107.804,19.26,20.34,52.53,0,110.8,13.24,20.08,292.9
"2009-07-03 00:47:30",1028557,4.192,330.9,0.668,0.049,18.76,107.8043,19.26,20.34,52.66,0,110.8,13.24,20.08,292.9
"2009-07-03 00:48:00",1028558,4.206,329.5,0.577,0.051,18.83,107.8083,19.27,20.34,52.97,0,110.8,13.24,20.09,291.5
"2009-07-03 00:48:30",1028559,4.102,329.7,0.918,0.061,18.83,107.8131,19.28,20.34,53.28,0,110.8,13.24,20.10,291.7
"2009-07-03 00:49:00",1028560,4.176,329.5,0.562,0.073,18.83,107.8176,19.29,20.35,53.56,0,110.8,13.24,20.11,291.5
"2009-07-03 00:49:30",1028561,4.203,329.7,0.66,0.041,18.83,107.8189,19.3,20.36,54.01,0,110.8,13.24,20.11,291.7
"2009-07-03 00:50:00",1028562,4.074,329,0.724,0.028,18.92,107.8213,19.3,20.35,54.19,0,110.8,13.24,20.12,291.0
"2009-07-03 00:50:30",1028563,3.842,326.4,1.775,0.138,18.86,107.8201,19.3,20.35,53.96,0,110.8,13.24,20.12,288.4
"2009-07-03 00:51:00",1028564,3.604,325.6,0.819,0.066,18.88,107.8228,19.31,20.37,53.38,0,110.8,13.24,20.12,287.6
"2009-07-03 00:51:30",1028565,3.415,323.3,1.602,0.089,18.87,107.8243,19.31,20.36,52.98,0,110.8,13.24,20.13,285.3
"2009-07-03 00:52:00",1028566,3.384,319.8,1.09,0.048,19.01,107.8243,19.31,20.35,52.69,0,110.8,13.24,20.13,281.8
"2009-07-03 00:52:30",1028567,3.399,317.6,1.093,0.058,18.96,107.8249,19.31,20.35,52.22,0,110.8,13.24,20.13,279.6
"2009-07-03 00:53:00",1028568,3.403,313.6,1.867,0.05,19.02,107.8263,19.31,20.36,51.9,0,110.8,13.24,20.13,275.6
"2009-07-03 00:53:30",1028569,3.448,310.7,0.57,0.06,19.14,107.827,19.32,20.37,51.53,0,110.8,13.24,20.14,272.7
"2009-07-03 00:54:00",1028570,3.353,311.5,0.455,0.035,19.13,107.8296,19.32,20.35,51.46,0,110.8,13.24,20.14,273.5
"2009-07-03 00:54:30",1028571,3.268,311.2,0.895,0.037,19.09,107.831,19.33,20.36,51.46,0,110.8,13.24,20.15,273.2
"2009-07-03 00:55:00",1028572,3.281,309.9,0.779,0.04,19.13,107.8316,19.33,20.37,51.37,0,110.8,13.24,20.15,271.9
"2009-07-03 00:55:30",1028573,3.326,310.1,0.794,0.08,19.2,107.8339,19.33,20.37,51.38,0,110.8,13.24,20.15,272.1
"2009-07-03 00:56:00",1028574,3.384,310.3,0.269,0.036,19.28,107.8336,19.33,20.38,51.37,0,110.8,13.24,20.15,272.3
"2009-07-03 00:56:30",1028575,3.381,309,0.406,0.035,19.33,107.8367,19.34,20.38,51.3,0,110.8,13.24,20.16,271.0
"2009-07-03 00:57:00",1028576,3.383,310.3,0.329,0.042,19.31,107.8392,19.35,20.38,51.22,0,110.8,13.24,20.17,272.3
"2009-07-03 00:57:30",1028577,3.289,309.8,0.53,0.028,19.21,107.8427,19.36,20.39,51.25,0,110.8,13.24,20.18,271.8
"2009-07-03 00:58:00",1028578,3.172,310.5,0.46,0.069,19.11,107.8449,19.36,20.37,51.55,0,110.8,13.24,20.18,272.5
"2009-07-03 00:58:30",1028579,3.204,312.8,0.89,0.047,19.16,107.8486,19.37,20.39,51.65,0,110.8,13.24,20.19,274.8
"2009-07-03 00:59:00",1028580,3.144,312.6,0.898,0.045,19.16,107.855,19.39,20.39,51.74,0,110.8,13.24,20.21,274.6
"2009-07-03 00:59:30",1028581,3.103,311,1.12,0.048,19.16,107.8581,19.4,20.41,51.83,0,110.8,13.24,20.22,273.0
"2009-07-03 01:00:00",1028582,3.094,306.5,2.524,0.122,19.15,107.8587,19.4,20.4,51.67,0,110.8,13.24,20.22,268.5
"2009-07-03 01:00:30",1028583,3.363,299,2.173,0.101,19.43,107.8641,19.41,20.4,51.22,0,110.8,13.24,20.23,261.0
"2009-07-03 01:01:00",1028584,3.346,297,0.697,0.072,19.53,107.866,19.42,20.41,51.17,0,110.8,13.24,20.24,259.0
"2009-07-03 01:01:30",1028585,3.368,295.3,1.136,0.052,19.53,107.8663,19.42,20.41,51.12,0,110.8,13.24,20.24,257.3
"2009-07-03 01:02:00",1028586,3.22,294.9,0.894,0.083,19.5,107.8663,19.42,20.41,51.08,0,110.8,13.24,20.24,256.9
"2009-07-03 01:02:30",1028587,3.085,293.7,1.165,0.057,19.33,107.8663,19.42,20.41,51.07,0,110.8,13.25,20.24,255.7
"2009-07-03 01:03:00",1028588,3.002,290.2,0.86,0.051,19.24,107.8663,19.42,20.42,50.96,0,110.8,13.25,20.24,252.2
"2009-07-03 01:03:30",1028589,2.921,287.3,0.984,0.06,19.33,107.8663,19.42,20.43,51.01,0,110.8,13.25,20.24,249.3
"2009-07-03 01:04:00",1028590,2.917,287.6,0.955,0.065,19.41,107.8663,19.42,20.45,51.01,0,110.8,13.25,20.24,249.6
"2009-07-03 01:04:30",1028591,2.919,288.4,1.197,0.124,19.41,107.8683,19.42,20.46,51.05,0,110.8,13.25,20.24,250.4
"2009-07-03 01:05:00",1028592,2.967,285.8,1.432,0.077,19.4,107.8818,19.46,20.45,50.95,0,110.8,13.25,20.28,247.8
"2009-07-03 01:05:30",1028593,2.914,285,1.335,0.057,19.35,107.8891,19.48,20.47,50.95,0,110.8,13.25,20.30,247.0
"2009-07-03 01:06:00",1028594,2.706,283.3,2.045,0.085,19.27,107.8944,19.49,20.49,50.92,0,110.8,13.25,20.31,245.3
"2009-07-03 01:06:30",1028595,2.477,282.9,0.69,0.054,19.29,107.9001,19.5,20.49,50.8,0,110.8,13.25,20.32,244.9
"2009-07-03 01:07:00",1028596,2.326,282.4,1.556,0.059,19.2,107.9001,19.5,20.5,50.67,0,110.8,13.25,20.32,244.4
"2009-07-03 01:07:30",1028597,2.191,279.9,1.321,0.057,19.13,107.9001,19.5,20.51,50.66,0,110.8,13.25,20.32,241.9
"2009-07-03 01:08:00",1028598,2.016,276.6,1.641,0.064,19.17,107.9001,19.5,20.52,50.58,0,110.8,13.25,20.32,238.6
"2009-07-03 01:08:30",1028599,2.019,274.6,1.144,0.058,19.13,107.9006,19.5,20.53,50.54,0,110.8,13.25,20.32,236.6
"2009-07-03 01:09:00",1028600,1.97,275.2,1.05,0.042,19.16,107.9085,19.52,20.55,50.52,0,110.8,13.25,20.35,237.2
"2009-07-03 01:09:30",1028601,1.714,274.8,2.563,0.115,19.12,107.9195,19.55,20.54,50.53,0,110.8,13.25,20.37,236.8
"2009-07-03 01:10:00",1028602,1.544,269.1,1.285,0.069,19.14,107.9307,19.58,20.57,50.49,0,110.8,13.25,20.40,231.1
"2009-07-03 01:10:30",1028603,1.62,267.3,1.364,0.072,19.13,107.9338,19.59,20.59,50.45,0,110.8,13.25,20.41,229.3
"2009-07-03 01:11:00",1028604,1.835,268.9,1.087,0.188,19.21,107.9338,19.59,20.59,50.48,0,110.8,13.25,20.41,230.9
"2009-07-03 01:11:30",1028605,2.191,268.3,1.135,0.055,19.26,107.9338,19.59,20.6,50.92,0,110.8,13.25,20.41,230.3
"2009-07-03 01:12:00",1028606,2.026,265.1,1.639,0.077,19.35,107.9338,19.59,20.61,51.19,0,110.8,13.25,20.41,227.1
"2009-07-03 01:12:30",1028607,1.836,266.2,1.349,0.106,19.28,107.9338,19.59,20.61,51.14,0,110.8,13.25,20.41,228.2
"2009-07-03 01:13:00",1028608,1.732,265.4,1.481,0.08,19.23,107.9338,19.59,20.63,51.17,0,110.8,13.25,20.41,227.4
"2009-07-03 01:13:30",1028609,1.123,255.6,4.842,0.225,18.94,107.9341,19.59,20.63,50.43,0,110.8,13.25,20.41,217.6
"2009-07-03 01:14:00",1028610,0.722,237.2,5.255,0.079,19.01,107.9395,19.6,20.64,50.74,0,110.8,13.25,20.42,199.2
"2009-07-03 01:14:30",1028611,0.634,222.7,3.073,0.03,19.04,107.9406,19.61,20.65,51.04,0,110.8,13.25,20.43,184.7
"2009-07-03 01:15:00",1028612,0.747,212.2,2.505,0.057,18.9,107.9465,19.62,20.65,51.14,0,110.8,13.25,20.44,174.2
"2009-07-03 01:15:30",1028613,0.924,199.9,6.689,0.094,18.94,107.9507,19.63,20.65,51.35,0,110.8,13.25,20.45,161.9
"2009-07-03 01:16:00",1028614,1.185,180.5,3.326,0.046,18.91,107.9546,19.64,20.66,51.76,0,110.8,13.25,20.46,142.5
"2009-07-03 01:16:30",1028615,1.322,178.7,1.651,0.077,18.74,107.9564,19.65,20.66,51.66,0,110.8,13.25,20.47,140.7
"2009-07-03 01:17:00",1028616,1.46,178.8,1.648,0.055,18.83,107.9625,19.66,20.66,51.51,0,110.8,13.25,20.48,140.8
"2009-07-03 01:17:30",1028617,1.655,178.3,1.367,0.07,18.97,107.9648,19.67,20.67,51.42,0,110.8,13.25,20.49,140.3
"2009-07-03 01:18:00",1028618,1.931,173.5,0.843,0.048,18.83,107.9671,19.68,20.68,51.43,0,110.8,13.25,20.50,135.5
"2009-07-03 01:18:30",1028619,1.939,172.2,0.457,0.026,18.85,107.9665,19.67,20.69,51.51,0,110.8,13.25,20.49,134.2
"2009-07-03 01:19:00",1028620,2.069,173.5,2.234,0.099,18.81,107.964,19.67,20.69,51.51,0,110.8,13.25,20.49,135.5
"2009-07-03 01:19:30",1028621,2.082,182.6,2.409,0.116,18.93,107.9579,19.65,20.69,51.41,0,110.8,13.25,20.47,144.6
"2009-07-03 01:20:00",1028622,1.773,185.2,1.446,0.057,19.08,107.9509,19.63,20.69,51.43,0,110.8,13.25,20.45,147.2
"2009-07-03 01:20:30",1028623,1.843,182.9,0.884,0.055,19.05,107.9525,19.64,20.68,51.44,0,110.8,13.26,20.46,144.9
"2009-07-03 01:21:00",1028624,1.728,182.9,1.97,0.082,19.09,107.9501,19.63,20.68,51.47,0,110.8,13.26,20.45,144.9
"2009-07-03 01:21:30",1028625,1.634,180.4,1.289,0.117,19.04,107.9464,19.62,20.69,51.51,0,110.8,13.26,20.44,142.4
"2009-07-03 01:22:00",1028626,1.354,192.7,5.131,0.069,18.93,107.9447,19.62,20.68,51.52,0,110.8,13.26,20.44,154.7
"2009-07-03 01:22:30",1028627,1.407,184.4,6.379,0.105,18.93,107.9437,19.62,20.68,51.47,0,110.8,13.26,20.44,146.4
"2009-07-03 01:23:00",1028628,1.223,195.2,3.833,0.08,19.04,107.939,19.6,20.68,51.59,0,110.8,13.26,20.42,157.2
"2009-07-03 01:23:30",1028629,1.522,209.5,4.116,0.115,19.19,107.9393,19.6,20.68,51.46,0,110.8,13.26,20.42,171.5
"2009-07-03 01:24:00",1028630,1.606,220.5,3.418,0.165,19.31,107.9396,19.6,20.66,50.99,0,110.8,13.26,20.43,182.5
"2009-07-03 01:24:30",1028631,1.685,202.7,9.57,0.142,19.22,107.939,19.6,20.67,50.59,0,110.8,13.26,20.42,164.7
"2009-07-03 01:25:00",1028632,1.731,185.8,3.507,0.07,19.08,107.9384,19.6,20.66,51.1,0,110.8,13.26,20.42,147.8
"2009-07-03 01:25:30",1028633,1.789,205.8,7.368,0.096,19.24,107.9393,19.6,20.65,51.16,0,110.8,13.26,20.42,167.8
"2009-07-03 01:26:00",1028634,2.28,215.3,3.1,0.175,19.45,107.9417,19.61,20.63,51.05,0,110.8,13.26,20.43,177.3
"2009-07-03 01:26:30",1028635,2.066,208.5,3.297,0.073,19.36,107.946,19.62,20.64,50.66,0,110.8,13.26,20.44,170.5
"2009-07-03 01:27:00",1028636,2.201,199.2,5.991,0.14,19.23,107.9445,19.62,20.64,50.57,0,110.8,13.26,20.44,161.2
"2009-07-03 01:27:30",1028637,2.484,187.2,6.932,0.331,18.94,107.9437,19.62,20.63,51.03,0,110.8,13.26,20.44,149.2
"2009-07-03 01:28:00",1028638,2.408,204.4,5.609,0.137,19.19,107.9421,19.61,20.63,51.54,0,110.8,13.26,20.43,166.4
"2009-07-03 01:28:30",1028639,2.789,217.4,1.858,0.158,19.34,107.9366,19.6,20.62,51.17,0,110.8,13.26,20.42,179.4
"2009-07-03 01:29:00",1028640,3.15,217.7,3.238,0.288,19.41,107.9297,19.58,20.62,51.01,0,110.8,13.26,20.40,179.7
"2009-07-03 01:29:30",1028641,3.318,221.4,3.499,0.172,19.35,107.9275,19.57,20.62,50.91,0,110.8,13.26,20.39,183.4
"2009-07-03 01:30:00",1028642,3.431,222,3.557,0.148,19.4,107.9236,19.56,20.61,50.94,0,110.8,13.25,20.38,184.0
"2009-07-03 01:30:30",1028643,3.264,211.8,3.741,0.259,19.39,107.9241,19.57,20.62,50.93,0,110.8,13.25,20.39,173.8
"2009-07-03 01:31:00",1028644,3.647,204.9,1.921,0.087,19.32,107.9225,19.56,20.61,51.18,0,110.8,13.25,20.38,166.9
"2009-07-03 01:31:30",1028645,3.739,198.4,3.731,0.176,19.18,107.9228,19.56,20.61,51.43,0,110.8,13.25,20.38,160.4
"2009-07-03 01:32:00",1028646,4.302,196.2,1.381,0.188,19.25,107.924,19.56,20.61,51.53,0,110.8,13.25,20.38,158.2
"2009-07-03 01:32:30",1028647,4.595,194.8,2.646,0.109,19.26,107.9237,19.56,20.61,51.79,0,110.8,13.25,20.38,156.8
"2009-07-03 01:33:00",1028648,5.281,192.4,2.775,0.507,19.22,107.924,19.56,20.62,51.89,0,110.8,13.25,20.38,154.4
"2009-07-03 01:33:30",1028649,6.343,190.1,2.812,0.245,19.18,107.9247,19.57,20.62,52.22,0,110.8,13.25,20.39,152.1
"2009-07-03 01:34:00",1028650,7.173,193.9,1.086,0.152,19.1,107.9274,19.57,20.61,53.12,0,110.8,13.25,20.39,155.9
"2009-07-03 01:34:30",1028651,7.445,193.9,0.985,0.148,19.12,107.9265,19.57,20.6,53.66,0,110.8,13.25,20.39,155.9
"2009-07-03 01:35:00",1028652,7.363,191.8,1.107,0.115,19.11,107.9301,19.58,20.6,54.18,0,110.8,13.25,20.40,153.8
"2009-07-03 01:35:30",1028653,6.999,193.7,2.844,0.272,19.15,107.9323,19.59,20.61,54.73,0,110.8,13.26,20.41,155.7
"2009-07-03 01:36:00",1028654,6.533,198.3,2.152,0.155,19.13,107.931,19.58,20.61,54.64,0,110.8,13.26,20.40,160.3
"2009-07-03 01:36:30",1028655,6.644,199,1.964,0.146,19.14,107.9338,19.59,20.6,54.81,0,110.8,13.26,20.41,161.0
"2009-07-03 01:37:00",1028656,6.727,199.1,2.155,0.1,19.08,107.9316,19.58,20.61,55.27,0,110.8,13.26,20.40,161.1
"2009-07-03 01:37:30",1028657,7.085,194.6,1.066,0.228,19.07,107.9323,19.59,20.61,55.35,0,110.8,13.26,20.41,156.6
"2009-07-03 01:38:00",1028658,7.594,195.4,0.976,0.175,18.98,107.9338,19.59,20.59,55.48,0,110.8,13.26,20.41,157.4
"2009-07-03 01:38:30",1028659,7.81,197.6,1.794,0.134,18.98,107.9341,19.59,20.6,55.66,0,110.8,13.26,20.41,159.6
"2009-07-03 01:39:00",1028660,7.863,194.3,1.363,0.071,18.87,107.93,19.58,20.56,55.8,0,110.8,13.26,20.40,156.3
"2009-07-03 01:39:30",1028661,7.802,195.3,1.334,0.186,18.94,107.9255,19.57,20.57,56.86,0,110.8,13.26,20.39,157.3
"2009-07-03 01:40:00",1028662,7.7,197.2,1.472,0.175,18.97,107.9146,19.54,20.56,57.68,0,110.8,13.26,20.36,159.2
"2009-07-03 01:40:30",1028663,7.251,199.9,1.845,0.187,18.91,107.903,19.51,20.56,58.13,0,110.8,13.26,20.33,161.9
"2009-07-03 01:41:00",1028664,7.299,200,1.845,0.3,18.97,107.9027,19.51,20.54,57.66,0,110.8,13.26,20.33,162.0
"2009-07-03 01:41:30",1028665,7.712,197.7,1.1,0.087,18.97,107.9027,19.51,20.54,58.29,0,110.8,13.26,20.33,159.7
"2009-07-03 01:42:00",1028666,7.623,194,2.026,0.099,18.85,107.9008,19.51,20.51,58.88,0,110.7,13.26,20.33,156.0
"2009-07-03 01:42:30",1028667,7.258,193.6,1.602,0.225,18.75,107.8839,19.46,20.5,59.28,0,110.7,13.26,20.28,155.6
"2009-07-03 01:43:00",1028668,7.446,195.4,2.636,0.202,18.69,107.869,19.42,20.48,59.77,0,110.7,13.26,20.24,157.4
"2009-07-03 01:43:30",1028669,7.638,196.3,1.926,0.269,18.64,107.869,19.42,20.48,60.17,0,110.7,13.26,20.24,158.3
"2009-07-03 01:44:00",1028670,7.885,195.9,1.529,0.256,18.67,107.8684,19.42,20.44,60.54,0,110.7,13.26,20.24,157.9
"2009-07-03 01:44:30",1028671,8.06,195,1.747,0.291,18.72,107.8487,19.37,20.45,60.78,0,110.7,13.26,20.19,157.0
"2009-07-03 01:45:00",1028672,8.3,196.7,1.373,0.392,18.76,107.8352,19.34,20.41,60.87,0,110.7,13.26,20.16,158.7
"2009-07-03 01:45:30",1028673,8.29,197.5,3.122,0.258,18.75,107.8352,19.34,20.39,60.92,0,110.7,13.26,20.16,159.5
"2009-07-03 01:46:00",1028674,8.34,202.7,1.386,0.172,18.61,107.8177,19.29,20.38,60.7,0,110.7,13.26,20.11,164.7
"2009-07-03 01:46:30",1028675,8.85,203.8,1.489,0.404,18.45,107.8014,19.25,20.34,59.92,0,110.7,13.26,20.07,165.8